Content
SEND FEEDBACK

Daily
Averages
Monthly
Summary
United States of America

MAURICEVILLE, TEXAS


Home > North America > United States > Texas
Elevation: 20 feet     Latitude: 30 14N     Longitude: 093 44W

WEATHER
 
SELECT A DAY
Number of Records: 109,680;   Date Range: 8/25/05 - 9/1/14
 
SHARE

PRINT THIS DATA

[ ← Previous Day ]
WEATHER ALMANAC - SEPTEMBER 30, 2013
[ Next Day → ]
[ °C ]   °F
Weather ElementAverageHighLow
Temperature75.1 °F82.2 °F (11:15 am)71.6 °F (4:15 pm)
Dewpoint72.3 °F75.6 °F (1:15 pm)68.5 °F (3:55 pm)
Humidity91.2 %97 % (2:35 am)71 % (11:15 am)
Barometer29.90 in29.93 in (12:35 am)29.85 in (6:35 pm)
Wind Speed2.7 mph11.5 mph (3:35 pm)
Weather ElementAverage
Visibility8.6 mi
Wind DirectionENE (73.7 °)

Weather ElementTotal
Precipitation---
Cooling Degree Days11.9 (Base 65)
Growing Degree Days26.9 (Base 50)
Averaged from 71 records on September 30, 2013
WEATHER CONDITIONS BREAKOUT
WIND DIRECTION BREAKOUT
WEATHER BY HOUR - SEPTEMBER 30, 2013
[ °C ]   °F
Local TimeTemperatureDewpointHumidityBarometerVisibilityWind DirectionWind SpeedGust SpeedPrecipitationEventsConditions
12:35 AM73.4 °F72.3 °F96 %29.93 in7.0 miCalmClear
12:55 AM73.0 °F72.0 °F96 %29.92 in5.0 miCalmClear
1:15 AM72.9 °F71.8 °F96 %29.92 in5.0 miCalmClear
1:35 AM73.6 °F72.5 °F96 %29.92 in7.0 miCalmClear
1:55 AM73.4 °F72.3 °F96 %29.92 in7.0 miCalmClear
2:15 AM72.9 °F71.8 °F96 %29.91 in5.0 miCalmScattered Clouds
2:35 AM72.5 °F71.6 °F97 %29.91 in4.0 miCalmMostly Cloudy
2:55 AM72.9 °F72.0 °F97 %29.90 in5.0 miCalmMostly Cloudy
3:15 AM73.2 °F72.3 °F97 %29.90 in5.0 miCalmOvercast
3:35 AM73.8 °F72.9 °F97 %29.90 in7.0 miCalmOvercast
3:55 AM73.6 °F72.7 °F97 %29.90 in5.0 miCalmOvercast
4:15 AM73.8 °F72.9 °F97 %29.89 in5.0 miCalmOvercast
4:35 AM73.9 °F73.0 °F97 %29.89 in7.0 miCalmOvercast
4:55 AM74.5 °F73.4 °F96 %29.89 in10.0 miCalmOvercast
5:15 AM75.0 °F73.6 °F95 %29.89 in10.0 miCalmOvercast
5:35 AM75.9 °F73.0 °F91 %29.90 in10.0 miSSW (210°)3.5 mphOvercast
5:55 AM76.1 °F72.9 °F90 %29.90 in10.0 miCalmOvercast
6:15 AM74.7 °F72.9 °F94 %29.90 in10.0 miCalmOvercast
6:35 AM74.5 °F72.9 °F95 %29.90 in7.0 miCalmRainRain
6:55 AM74.5 °F73.4 °F96 %29.90 in10.0 miSE (140°)3.5 mphOvercast
7:15 AM76.1 °F71.8 °F86 %29.90 in10.0 miCalmOvercast
7:35 AM75.4 °F72.7 °F91 %29.90 in10.0 miCalmOvercast
7:55 AM77.0 °F73.0 °F88 %29.90 in10.0 miSSW (210°)5.8 mphOvercast
8:15 AM77.2 °F73.4 °F88 %29.90 in10.0 miSSW (200°)5.8 mphOvercast
8:35 AM76.6 °F72.9 °F88 %29.91 in10.0 miSSW (200°)3.5 mphRainLight Rain
8:55 AM76.3 °F73.4 °F91 %29.92 in10.0 miCalmOvercast
9:15 AM76.3 °F73.8 °F92 %29.92 in7.0 miCalmRainRain
9:35 AM75.6 °F73.6 °F94 %29.92 in7.0 miCalmRainLight Rain
9:55 AM77.7 °F74.8 °F91 %29.92 in10.0 miCalmOvercast
10:15 AM77.0 °F74.8 °F93 %29.92 in10.0 miCalmRainLight Rain
10:35 AM78.8 °F74.5 °F87 %29.92 in10.0 miSouth (190°)5.8 mphOvercast
10:55 AM80.6 °F71.6 °F74 %29.91 in10.0 miSouth (190°)6.9 mphOvercast
11:15 AM82.2 °F71.8 °F71 %29.91 in10.0 miSouth (190°)5.8 mphOvercast
11:35 AM82.2 °F73.2 °F74 %29.92 in10.0 miSouth (180°)9.2 mphOvercast
11:55 AM81.7 °F72.7 °F74 %29.92 in10.0 miSE (140°)8.1 mphOvercast
12:15 PM80.6 °F73.6 °F79 %29.93 in10.0 miSSE (150°)5.8 mphOvercast
12:35 PM80.2 °F74.8 °F84 %29.92 in10.0 miCalmOvercast
12:55 PM80.6 °F75.2 °F84 %29.92 in10.0 miSSE (160°)4.6 mphRainRain
1:15 PM80.4 °F75.6 °F85 %29.91 in7.0 miCalmRainLight Rain
1:35 PM81.0 °F74.7 °F81 %29.90 in3.0 miSouth (180°)3.5 mphRainHeavy Rain
1:55 PM76.5 °F72.9 °F89 %29.90 in2.0 miSW (230°)5.8 mphRain-ThunderstormHeavy Thunderstorms and Rain
2:15 PM76.1 °F73.8 °F92 %29.89 in7.0 miNNW (330°)4.6 mphRain-ThunderstormLight Thunderstorms and Rain
2:35 PM74.8 °F72.5 °F92 %29.89 in10.0 miWest (280°)9.2 mphRain-ThunderstormThunderstorms and Rain
2:55 PM72.0 °F69.3 °F91 %29.90 in3.0 miSSW (210°)6.9 mphRain-ThunderstormHeavy Thunderstorms and Rain
3:15 PM73.8 °F71.2 °F92 %29.87 in2.5 miSE (130°)8.1 mphRain-ThunderstormThunderstorms and Rain
3:35 PM73.6 °F71.4 °F93 %29.87 in10.0 miSSE (160°)11.5 mphRain-ThunderstormLight Thunderstorms and Rain
3:55 PM72.5 °F68.5 °F87 %29.87 in10.0 miCalmRain-ThunderstormLight Thunderstorms and Rain
4:15 PM71.6 °F69.3 °F92 %29.88 in10.0 miNNE (30°)4.6 mphRain-ThunderstormLight Thunderstorms and Rain
4:35 PM72.7 °F70.0 °F91 %29.88 in10.0 miCalmRain-ThunderstormLight Thunderstorms and Rain
4:55 PM72.7 °F70.0 °F91 %29.88 in10.0 miSSW (200°)4.6 mphRain-ThunderstormLight Thunderstorms and Rain
5:15 PM73.4 °F70.0 °F89 %29.87 in10.0 miSSE (160°)4.6 mphThunderstorm
5:35 PM73.8 °F70.7 °F90 %29.87 in10.0 miWest (260°)4.6 mphClear
5:55 PM75.2 °F71.8 °F89 %29.86 in10.0 miCalmClear
6:15 PM74.3 °F71.8 °F92 %29.87 in10.0 miCalmClear
6:35 PM74.7 °F72.5 °F93 %29.85 in10.0 miCalmClear
6:55 PM73.9 °F72.0 °F93 %29.87 in10.0 miCalmClear
7:15 PM73.4 °F71.8 °F95 %29.87 in10.0 miENE (70°)4.6 mphClear
7:35 PM72.9 °F71.4 °F95 %29.88 in10.0 miNE (50°)5.8 mphScattered Clouds
7:55 PM72.7 °F70.7 °F93 %29.88 in10.0 miNNE (30°)3.5 mphClear
8:15 PM72.5 °F70.3 °F93 %29.88 in10.0 miEast (80°)4.6 mphClear
8:35 PM72.5 °F70.2 °F92 %29.89 in10.0 miNNE (30°)3.5 mphClear
8:55 PM71.8 °F69.8 °F93 %29.90 in10.0 miCalmClear
9:15 PM72.0 °F70.0 °F93 %29.90 in10.0 miCalmClear
9:35 PM72.5 °F70.9 °F95 %29.91 in10.0 miENE (60°)3.5 mphClear
9:55 PM73.0 °F71.6 °F95 %29.91 in10.0 miENE (70°)3.5 mphClear
10:15 PM73.2 °F71.8 °F95 %29.92 in10.0 miENE (70°)3.5 mphClear
10:35 PM73.4 °F72.0 °F95 %29.92 in10.0 miEast (80°)3.5 mphScattered Clouds
10:55 PM73.9 °F72.7 °F96 %29.92 in10.0 miENE (70°)3.5 mphScattered Clouds
11:15 PM74.5 °F73.4 °F96 %29.92 in10.0 miEast (90°)3.5 mphClear
11:35 PM75.2 °F73.8 °F95 %29.92 in10.0 miEast (100°)4.6 mphClear
11:55 PM75.7 °F73.8 °F94 %29.92 in10.0 miEast (100°)5.8 mphClear
Hourly data recorded from KORG, located miles away from Mauriceville, Texas







STORIES FROM OUR PARTNERS